• In Hungary
  • List of Countries
  • For 7 days
  • Water Temperature
  • Satellite Maps
  • Weather Map
  • News
  • Weather Widgets
  • user-avatar
    Login

    Hourly Weather Sucre

    Today, 17 August, Friday

    Time Temperature Precipitation Wind Pressure Humidity
    00:00 +10°C° 0 mm 1 mps 542 mmHg 72%
    01:00 +10°C° 0 mm 1 mps 542 mmHg 75%
    02:00 +9°C° 0 mm 1 mps 542 mmHg 82%
    03:00 +9°C° 0 mm 1 mps 541 mmHg 84%
    04:00 +8°C° 0 mm 1 mps 541 mmHg 87%
    05:00 +8°C° 0 mm 1 mps 540 mmHg 89%
    06:00 +9°C° 0 mm 1 mps 541 mmHg 84%
    07:00 +10°C° 0 mm 1 mps 542 mmHg 79%
    08:00 +10°C° 0 mm 1 mps 542 mmHg 74%
    09:00 +12°C° 0 mm 1 mps 543 mmHg 63%
    10:00 +14°C° 0 mm 1 mps 544 mmHg 52%
    11:00 +16°C° 0 mm 2 mps 544 mmHg 41%
    12:00 +17°C° 0 mm 2 mps 544 mmHg 37%
    13:00 +18°C° 0 mm 3 mps 544 mmHg 34%
    14:00 +19°C° 0 mm 3 mps 544 mmHg 30%
    15:00 +19°C° 0 mm 3 mps 544 mmHg 33%
    16:00 +18°C° 0 mm 4 mps 543 mmHg 35%
    17:00 +18°C° 0 mm 4 mps 543 mmHg 38%
    18:00 +17°C° 0 mm 3 mps 542 mmHg 45%
    19:00 +14°C° 0 mm 3 mps 542 mmHg 51%
    20:00 +14°C° 0 mm 2 mps 542 mmHg 57%
    21:00 +14°C° 0.1 mm 2 mps 542 mmHg 62%
    22:00 +13°C° 0.1 mm 1 mps 542 mmHg 66%
    23:00 +12°C° 0.1 mm 1 mps 542 mmHg 71%

    Tomorrow, 18 August, Saturday

    Time Temperature Precipitation Wind Pressure Humidity
    00:00 +12°C° 0 mm 1 mps 541 mmHg 74%
    01:00 +11°C° 0 mm 1 mps 541 mmHg 77%
    02:00 +11°C° 0 mm 1 mps 540 mmHg 79%
    03:00 +10°C° 0 mm 1 mps 540 mmHg 80%
    04:00 +10°C° 0 mm 1 mps 539 mmHg 81%
    05:00 +9°C° 0 mm 1 mps 539 mmHg 82%
    06:00 +10°C° 0 mm 1 mps 540 mmHg 75%
    07:00 +11°C° 0 mm 1 mps 540 mmHg 68%
    08:00 +12°C° 0 mm 1 mps 541 mmHg 61%
    09:00 +14°C° 0 mm 2 mps 542 mmHg 50%
    10:00 +16°C° 0 mm 2 mps 543 mmHg 38%
    11:00 +18°C° 0 mm 2 mps 544 mmHg 27%
    12:00 +19°C° 0 mm 2 mps 543 mmHg 24%
    13:00 +20°C° 0 mm 3 mps 543 mmHg 22%
    14:00 +21°C° 0 mm 3 mps 543 mmHg 19%
    15:00 +21°C° 0 mm 3 mps 543 mmHg 21%
    16:00 +20°C° 0 mm 3 mps 542 mmHg 22%
    17:00 +20°C° 0 mm 4 mps 542 mmHg 24%
    18:00 +19°C° 0 mm 3 mps 541 mmHg 31%
    19:00 +17°C° 0 mm 2 mps 541 mmHg 39%
    20:00 +16°C° 0 mm 2 mps 541 mmHg 46%
    21:00 +15°C° 0.1 mm 1 mps 541 mmHg 52%
    22:00 +14°C° 0.1 mm 1 mps 541 mmHg 59%
    23:00 +13°C° 0.1 mm 1 mps 541 mmHg 65%

    Day after tomorrow, 19 August, Sunday

    Time Temperature Precipitation Wind Pressure Humidity
    00:00 +13°C° 0.1 mm 1 mps 541 mmHg 70%
    01:00 +11°C° 0.1 mm 0 mps 540 mmHg 75%
    02:00 +10°C° 0.1 mm 0 mps 540 mmHg 79%
    03:00 +10°C° 0 mm 0 mps 540 mmHg 82%
    04:00 +9°C° 0 mm 0 mps 540 mmHg 85%
    05:00 +9°C° 0 mm 0 mps 539 mmHg 87%
    06:00 +9°C° 0 mm 0 mps 540 mmHg 85%
    07:00 +11°C° 0 mm 1 mps 541 mmHg 82%
    08:00 +12°C° 0 mm 1 mps 542 mmHg 80%
    09:00 +13°C° 0.2 mm 1 mps 543 mmHg 73%
    10:00 +14°C° 0.2 mm 2 mps 543 mmHg 66%
    11:00 +14°C° 0.2 mm 3 mps 544 mmHg 60%
    12:00 +14°C° 0.2 mm 3 mps 544 mmHg 57%
    13:00 +15°C° 0.2 mm 4 mps 543 mmHg 54%
    14:00 +15°C° 0.2 mm 5 mps 543 mmHg 51%
    15:00 +14°C° 0.1 mm 5 mps 542 mmHg 54%
    16:00 +14°C° 0.1 mm 4 mps 542 mmHg 58%
    17:00 +13°C° 0.1 mm 4 mps 541 mmHg 62%
    18:00 +12°C° 0.2 mm 4 mps 541 mmHg 67%
    19:00 +11°C° 0.2 mm 3 mps 542 mmHg 72%
    20:00 +11°C° 0.2 mm 3 mps 542 mmHg 77%
    21:00 +10°C° 0.1 mm 3 mps 542 mmHg 79%
    22:00 +10°C° 0.1 mm 2 mps 542 mmHg 81%
    23:00 +9°C° 0.1 mm 2 mps 542 mmHg 83%

    20 August, Monday

    Time Temperature Precipitation Wind Pressure Humidity
    00:00 +9°C° 0.1 mm 2 mps 542 mmHg 84%
    01:00 +9°C° 0.1 mm 2 mps 542 mmHg 85%
    02:00 +8°C° 0.1 mm 2 mps 541 mmHg 86%
    03:00 +8°C° 0 mm 2 mps 541 mmHg 86%
    04:00 +7°C° 0 mm 2 mps 541 mmHg 87%
    05:00 +7°C° 0 mm 2 mps 540 mmHg 87%
    06:00 +7°C° 0.1 mm 2 mps 541 mmHg 86%
    07:00 +7°C° 0.1 mm 2 mps 541 mmHg 85%
    08:00 +7°C° 0.1 mm 2 mps 541 mmHg 84%
    09:00 +8°C° 0 mm 2 mps 542 mmHg 79%
    10:00 +9°C° 0 mm 2 mps 542 mmHg 74%
    11:00 +10°C° 0 mm 3 mps 543 mmHg 69%
    12:00 +10°C° 0.2 mm 3 mps 542 mmHg 68%
    13:00 +10°C° 0.2 mm 3 mps 542 mmHg 67%
    14:00 +11°C° 0.2 mm 3 mps 541 mmHg 66%
    15:00 +11°C° 0.1 mm 3 mps 541 mmHg 66%
    16:00 +11°C° 0.1 mm 3 mps 540 mmHg 66%
    17:00 +11°C° 0.1 mm 3 mps 540 mmHg 67%
    18:00 +10°C° 0.2 mm 3 mps 540 mmHg 71%
    19:00 +9°C° 0.2 mm 2 mps 541 mmHg 75%
    20:00 +8°C° 0.2 mm 2 mps 541 mmHg 78%
    21:00 +8°C° 0 mm 2 mps 541 mmHg 80%
    22:00 +9°C° 0 mm 1 mps 541 mmHg 82%
    23:00 +9°C° 0 mm 1 mps 541 mmHg 83%

    21 August, Tuesday

    Time Temperature Precipitation Wind Pressure Humidity
    00:00 +8°C° 0 mm 1 mps 541 mmHg 85%
    01:00 +8°C° 0 mm 1 mps 540 mmHg 86%
    02:00 +8°C° 0 mm 1 mps 540 mmHg 88%
    03:00 +7°C° 0 mm 1 mps 540 mmHg 87%
    04:00 +7°C° 0 mm 1 mps 539 mmHg 87%
    05:00 +7°C° 0 mm 1 mps 539 mmHg 86%
    06:00 +8°C° 0 mm 1 mps 540 mmHg 80%
    07:00 +9°C° 0 mm 1 mps 541 mmHg 74%
    08:00 +9°C° 0 mm 1 mps 541 mmHg 68%
    09:00 +12°C° 0 mm 1 mps 542 mmHg 56%
    10:00 +14°C° 0 mm 2 mps 543 mmHg 44%
    11:00 +16°C° 0 mm 2 mps 544 mmHg 32%
    12:00 +17°C° 0 mm 3 mps 544 mmHg 29%
    13:00 +18°C° 0 mm 3 mps 544 mmHg 27%
    14:00 +19°C° 0 mm 4 mps 544 mmHg 24%
    15:00 +19°C° 0 mm 4 mps 543 mmHg 28%
    16:00 +18°C° 0 mm 4 mps 543 mmHg 32%
    17:00 +18°C° 0 mm 4 mps 542 mmHg 36%
    18:00 +15°C° 0 mm 4 mps 542 mmHg 45%
    19:00 +13°C° 0 mm 3 mps 542 mmHg 54%
    20:00 +13°C° 0 mm 2 mps 542 mmHg 63%
    21:00 +12°C° 0 mm 2 mps 542 mmHg 67%
    22:00 +10°C° 0 mm 2 mps 542 mmHg 72%
    23:00 +10°C° 0 mm 2 mps 542 mmHg 77%

    22 August, Wednesday

    Time Temperature Precipitation Wind Pressure Humidity
    00:00 +9°C° 0 mm 2 mps 541 mmHg 78%
    01:00 +9°C° 0 mm 2 mps 541 mmHg 80%
    02:00 +9°C° 0 mm 2 mps 541 mmHg 81%
    03:00 +9°C° 0 mm 2 mps 540 mmHg 81%
    04:00 +8°C° 0 mm 2 mps 540 mmHg 81%
    05:00 +8°C° 0 mm 2 mps 540 mmHg 81%
    06:00 +10°C° 0 mm 1 mps 541 mmHg 77%
    07:00 +10°C° 0 mm 1 mps 541 mmHg 73%
    08:00 +11°C° 0 mm 1 mps 542 mmHg 69%
    09:00 +13°C° 0 mm 2 mps 542 mmHg 59%
    10:00 +15°C° 0 mm 2 mps 543 mmHg 49%
    11:00 +17°C° 0 mm 2 mps 544 mmHg 39%
    12:00 +18°C° 0 mm 3 mps 544 mmHg 35%
    13:00 +19°C° 0 mm 3 mps 543 mmHg 31%
    14:00 +20°C° 0 mm 4 mps 543 mmHg 28%
    15:00 +20°C° 0 mm 4 mps 542 mmHg 30%
    16:00 +19°C° 0 mm 4 mps 542 mmHg 32%
    17:00 +19°C° 0 mm 4 mps 541 mmHg 35%
    18:00 +17°C° 0 mm 3 mps 541 mmHg 42%
    19:00 +16°C° 0 mm 3 mps 541 mmHg 50%
    20:00 +14°C° 0 mm 2 mps 541 mmHg 57%
    21:00 +14°C° 0 mm 2 mps 541 mmHg 62%
    22:00 +13°C° 0 mm 1 mps 540 mmHg 67%
    23:00 +12°C° 0 mm 1 mps 540 mmHg 72%
    Show more